Starlink 32346

operational
NORAD ID: 61849 Int'l Des: 2024-202 Owner: SPXS Country: US Constellation: starlink
LEOCIRCULAR

关于 Starlink 32346

正在加载描述...

实时位置

正在加载3D地球...

即将过境

高度历史

Altitude vs Time

uPlot chart will show altitude changes over time

两行轨道根数

1 61849U 24202E 25353.90724987 .00000354 00000-0 22401-4 0 9997
2 61849 43.0024 317.5104 0001543 263.2013 96.8663 15.27578531 63252
Epoch: Dec 19, 2025 • Age: 7 hours

当前状态

高度 485.7 km
速度 7.62 km/s
星下点 -15.87°S, 9.63°W
发射日期 Nov 7, 2024
运行时间 1.1 years
类型 internet

技术详情

分类 Payload
质量 730.00 kg
干质量 700.00 kg
总质量 730.00 kg
长度 0.30 m
直径 4.10 m
跨度 29.00 m
形状 Box + pan
制造商 SPXS
平台类型 Starlink V2M
阶段状态 In Orbit
所有者/国家 SPXS/US

大型星座

Loading constellations...